Time,TemperatureF,DewpointF,PressureIn,WindDirection,WindDirectionDegrees,WindSpeedMPH,WindSpeedGustMPH,Humidity,HourlyPrecipIn,Conditions,Clouds,dailyrainin,SoftwareType,DateUTC
2013-01-28 00:02:00,34.0,22.0,-100.00,SW,226,10.0,14.0,60,0.00,,,-99.99,,2013-01-28 07:02:00,
2013-01-28 00:11:00,35.0,22.0,-100.00,SW,226,8.0,12.0,60,0.00,,,-99.99,,2013-01-28 07:11:00,
2013-01-28 00:21:00,33.0,23.0,-100.00,SW,216,4.0,11.0,65,0.00,,,-99.99,,2013-01-28 07:21:00,
2013-01-28 00:32:00,34.0,23.0,-100.00,South,182,4.0,7.0,63,0.00,,,-99.99,,2013-01-28 07:32:00,
2013-01-28 00:41:00,33.0,23.0,-100.00,South,179,4.0,7.0,66,0.00,,,-99.99,,2013-01-28 07:41:00,
2013-01-28 00:51:00,33.0,23.0,-100.00,South,171,7.0,10.0,67,0.00,,,-99.99,,2013-01-28 07:51:00,
2013-01-28 01:01:00,32.0,23.0,-100.00,SSE,161,6.0,8.0,69,0.00,,,-99.99,,2013-01-28 08:01:00,
2013-01-28 01:11:00,34.0,21.0,-100.00,SSW,193,5.0,18.0,58,0.00,,,-99.99,,2013-01-28 08:11:00,
2013-01-28 01:21:00,35.0,20.0,-100.00,SW,233,7.0,14.0,53,0.00,,,-99.99,,2013-01-28 08:21:00,
2013-01-28 01:32:00,33.0,21.0,-100.00,South,182,7.0,11.0,60,0.00,,,-99.99,,2013-01-28 08:32:00,
2013-01-28 01:42:00,35.0,22.0,-100.00,SSW,209,6.0,15.0,59,0.00,,,-99.99,,2013-01-28 08:42:00,
2013-01-28 01:52:00,35.0,22.0,-100.00,West,260,12.0,24.0,59,0.01,,,-99.99,,2013-01-28 08:52:00,
2013-01-28 02:02:00,33.0,25.0,-100.00,WSW,254,15.0,24.0,70,0.01,,,-99.99,,2013-01-28 09:02:00,
2013-01-28 02:11:00,33.0,25.0,-100.00,WSW,254,15.0,24.0,71,0.00,,,-99.99,,2013-01-28 09:11:00,
2013-01-28 02:21:00,35.0,23.0,-100.00,WSW,246,16.0,28.0,62,0.00,,,-99.99,,2013-01-28 09:21:00,
2013-01-28 02:32:00,35.0,23.0,-100.00,WSW,240,14.0,26.0,62,0.00,,,-99.99,,2013-01-28 09:32:00,
2013-01-28 02:42:00,34.0,24.0,-100.00,SW,236,16.0,27.0,65,0.00,,,-99.99,,2013-01-28 09:42:00,
2013-01-28 02:51:00,34.0,24.0,-100.00,SW,232,11.0,17.0,69,0.00,,,-99.99,,2013-01-28 09:51:00,
2013-01-28 03:02:00,32.0,26.0,-100.00,SW,223,10.0,16.0,79,0.01,,,-99.99,,2013-01-28 10:02:00,
2013-01-28 03:11:00,32.0,27.0,-100.00,SW,230,7.0,13.0,80,0.01,,,-99.99,,2013-01-28 10:11:00,
2013-01-28 03:21:00,33.0,24.0,-100.00,SW,230,7.0,15.0,67,0.00,,,-99.99,,2013-01-28 10:21:00,
2013-01-28 03:32:00,34.0,22.0,-100.00,SW,224,13.0,31.0,60,0.00,,,-99.99,,2013-01-28 10:32:00,
2013-01-28 03:41:00,35.0,21.0,-100.00,SW,223,19.0,30.0,56,0.00,,,-99.99,,2013-01-28 10:41:00,
2013-01-28 03:51:00,35.0,20.0,-100.00,SW,222,18.0,30.0,54,0.00,,,-99.99,,2013-01-28 10:51:00,
2013-01-28 04:02:00,35.0,20.0,-100.00,SW,219,22.0,35.0,53,0.00,,,-99.99,,2013-01-28 11:02:00,
2013-01-28 04:11:00,35.0,19.0,-100.00,SW,215,21.0,32.0,51,0.00,,,-99.99,,2013-01-28 11:11:00,
2013-01-28 04:22:00,35.0,19.0,-100.00,SW,220,21.0,37.0,51,0.00,,,-99.99,,2013-01-28 11:22:00,
2013-01-28 04:32:00,35.0,20.0,-100.00,SW,232,20.0,28.0,54,0.00,,,-99.99,,2013-01-28 11:32:00,
2013-01-28 04:52:00,26.0,25.0,-100.00,WNW,292,12.0,20.0,96,0.03,,,-99.99,,2013-01-28 11:52:00,
2013-01-28 05:03:00,25.0,25.0,-100.00,WNW,288,12.0,17.0,98,0.16,,,-99.99,,2013-01-28 12:03:00,
2013-01-28 05:11:00,25.0,25.0,-100.00,WNW,289,14.0,19.0,99,0.17,,,-99.99,,2013-01-28 12:11:00,
2013-01-28 05:23:00,26.0,26.0,-100.00,West,281,11.0,16.0,100,0.27,,,-99.99,,2013-01-28 12:23:00,
2013-01-28 05:33:00,26.0,26.0,-100.00,West,271,7.0,13.0,100,0.00,,,-99.99,,2013-01-28 12:33:00,
2013-01-28 05:42:00,26.0,25.0,-100.00,West,263,4.0,11.0,97,0.00,,,-99.99,,2013-01-28 12:42:00,
2013-01-28 05:52:00,24.0,24.0,-100.00,West,281,5.0,7.0,98,0.00,,,-99.99,,2013-01-28 12:52:00,
2013-01-28 06:02:00,24.0,24.0,-100.00,West,261,4.0,11.0,98,0.00,,,-99.99,,2013-01-28 13:02:00,
2013-01-28 06:12:00,28.0,24.0,-100.00,WSW,244,6.0,15.0,86,0.00,,,-99.99,,2013-01-28 13:12:00,
2013-01-28 06:23:00,30.0,23.0,-100.00,SW,233,11.0,17.0,74,0.00,,,-99.99,,2013-01-28 13:23:00,
2013-01-28 06:33:00,30.0,22.0,-100.00,SW,234,8.0,13.0,73,0.00,,,-99.99,,2013-01-28 13:33:00,
2013-01-28 06:42:00,29.0,22.0,-100.00,WSW,240,5.0,7.0,72,0.00,,,-99.99,,2013-01-28 13:42:00,
2013-01-28 06:52:00,29.0,21.0,-100.00,SW,229,6.0,13.0,70,0.00,,,-99.99,,2013-01-28 13:52:00,
2013-01-28 07:03:00,30.0,20.0,-100.00,SW,232,7.0,15.0,67,0.00,,,-99.99,,2013-01-28 14:03:00,
2013-01-28 07:12:00,31.0,20.0,-100.00,WSW,239,7.0,15.0,66,0.00,,,-99.99,,2013-01-28 14:12:00,
2013-01-28 07:22:00,31.0,20.0,-100.00,WSW,243,11.0,19.0,65,0.00,,,-99.99,,2013-01-28 14:22:00,
2013-01-28 07:33:00,26.0,21.0,-100.00,West,267,10.0,16.0,80,0.00,,,-99.99,,2013-01-28 14:33:00,
2013-01-28 07:42:00,24.0,21.0,-100.00,WNW,287,12.0,18.0,91,0.00,,,-99.99,,2013-01-28 14:42:00,
2013-01-28 07:52:00,23.0,22.0,-100.00,WNW,295,13.0,17.0,94,0.00,,,-99.99,,2013-01-28 14:52:00,
2013-01-28 08:03:00,23.0,22.0,-100.00,WNW,292,12.0,19.0,95,0.00,,,-99.99,,2013-01-28 15:03:00,
2013-01-28 08:12:00,24.0,22.0,-100.00,WNW,289,12.0,19.0,94,0.00,,,-99.99,,2013-01-28 15:12:00,
2013-01-28 08:23:00,24.0,22.0,-100.00,WNW,291,12.0,16.0,91,0.00,,,-99.99,,2013-01-28 15:23:00,
2013-01-28 08:33:00,24.0,21.0,-100.00,WNW,295,12.0,17.0,91,0.00,,,-99.99,,2013-01-28 15:33:00,
2013-01-28 08:43:00,23.0,21.0,-100.00,WNW,288,8.0,14.0,93,0.00,,,-99.99,,2013-01-28 15:43:00,
2013-01-28 08:52:00,23.0,21.0,-100.00,West,271,1.0,7.0,92,0.00,,,-99.99,,2013-01-28 15:52:00,
2013-01-28 09:04:00,24.0,22.0,-100.00,West,275,0.0,3.0,89,0.00,,,-99.99,,2013-01-28 16:04:00,
2013-01-28 09:12:00,26.0,22.0,-100.00,WNW,291,1.0,6.0,87,0.00,,,-99.99,,2013-01-28 16:12:00,
2013-01-28 09:22:00,30.0,21.0,-100.00,West,265,9.0,13.0,70,0.00,,,-99.99,,2013-01-28 16:22:00,
2013-01-28 09:32:00,28.0,21.0,-100.00,West,272,11.0,19.0,76,0.00,,,-99.99,,2013-01-28 16:32:00,
2013-01-28 09:42:00,23.0,20.0,-100.00,WNW,298,14.0,17.0,92,0.00,,,-99.99,,2013-01-28 16:42:00,
2013-01-28 09:52:00,21.0,20.0,-100.00,WNW,302,17.0,24.0,95,0.00,,,-99.99,,2013-01-28 16:52:00,
2013-01-28 10:02:00,21.0,20.0,-100.00,NW,304,16.0,21.0,94,0.00,,,-99.99,,2013-01-28 17:02:00,
2013-01-28 10:12:00,21.0,20.0,-100.00,NW,312,14.0,21.0,94,0.00,,,-99.99,,2013-01-28 17:12:00,
2013-01-28 10:22:00,21.0,19.0,-100.00,NNW,333,14.0,20.0,91,0.00,,,-99.99,,2013-01-28 17:22:00,
2013-01-28 10:32:00,21.0,19.0,-100.00,NNW,328,15.0,21.0,92,0.00,,,-99.99,,2013-01-28 17:32:00,
2013-01-28 10:42:00,21.0,18.0,-100.00,NW,313,17.0,26.0,88,0.00,,,-99.99,,2013-01-28 17:42:00,
2013-01-28 10:52:00,21.0,18.0,-100.00,WNW,298,21.0,26.0,86,0.00,,,-99.99,,2013-01-28 17:52:00,
2013-01-28 11:03:00,21.0,17.0,-100.00,WNW,284,16.0,21.0,83,0.00,,,-99.99,,2013-01-28 18:03:00,
2013-01-28 11:12:00,21.0,17.0,-100.00,West,275,15.0,21.0,82,0.00,,,-99.99,,2013-01-28 18:12:00,
2013-01-28 11:23:00,21.0,18.0,-100.00,WNW,298,11.0,16.0,87,0.00,,,-99.99,,2013-01-28 18:23:00,
2013-01-28 11:33:00,21.0,17.0,-100.00,NW,311,14.0,19.0,86,0.00,,,-99.99,,2013-01-28 18:33:00,
2013-01-28 11:42:00,21.0,18.0,-100.00,NW,322,15.0,19.0,88,0.00,,,-99.99,,2013-01-28 18:42:00,
2013-01-28 11:52:00,21.0,18.0,-100.00,NW,319,15.0,19.0,88,0.00,,,-99.99,,2013-01-28 18:52:00,
2013-01-28 12:02:00,21.0,18.0,-100.00,NW,318,16.0,20.0,91,0.03,,,-99.99,,2013-01-28 19:02:00,
2013-01-28 12:12:00,21.0,18.0,-100.00,NW,323,16.0,21.0,90,0.01,,,-99.99,,2013-01-28 19:12:00,
2013-01-28 12:22:00,22.0,16.0,-100.00,WNW,299,10.0,17.0,77,0.00,,,-99.99,,2013-01-28 19:22:00,
2013-01-28 12:32:00,22.0,15.0,-100.00,West,277,16.0,24.0,76,0.00,,,-99.99,,2013-01-28 19:32:00,
2013-01-28 12:42:00,22.0,15.0,-100.00,West,265,17.0,24.0,74,0.00,,,-99.99,,2013-01-28 19:42:00,
2013-01-28 12:52:00,21.0,15.0,-100.00,WNW,291,17.0,23.0,77,0.00,,,-99.99,,2013-01-28 19:52:00,
2013-01-28 13:02:00,21.0,16.0,-100.00,WNW,302,19.0,24.0,81,0.00,,,-99.99,,2013-01-28 20:02:00,
2013-01-28 13:12:00,21.0,15.0,-100.00,NW,305,18.0,22.0,78,0.00,,,-99.99,,2013-01-28 20:12:00,
2013-01-28 13:22:00,21.0,15.0,-100.00,NW,315,16.0,21.0,76,0.00,,,-99.99,,2013-01-28 20:22:00,
2013-01-28 13:33:00,22.0,16.0,-100.00,NW,316,12.0,19.0,77,0.00,,,-99.99,,2013-01-28 20:33:00,
2013-01-28 13:42:00,22.0,15.0,-100.00,WNW,302,12.0,17.0,73,0.00,,,-99.99,,2013-01-28 20:42:00,
2013-01-28 13:52:00,21.0,15.0,-100.00,WNW,295,17.0,21.0,79,0.00,,,-99.99,,2013-01-28 20:52:00,
2013-01-28 14:03:00,21.0,15.0,-100.00,WNW,284,17.0,24.0,76,0.00,,,-99.99,,2013-01-28 21:03:00,
2013-01-28 14:11:00,21.0,14.0,-100.00,West,275,17.0,23.0,74,0.00,,,-99.99,,2013-01-28 21:11:00,
2013-01-28 14:22:00,21.0,13.0,-100.00,West,280,16.0,22.0,73,0.00,,,-99.99,,2013-01-28 21:22:00,
2013-01-28 14:33:00,21.0,13.0,-100.00,West,281,13.0,18.0,72,0.00,,,-99.99,,2013-01-28 21:33:00,
2013-01-28 14:42:00,21.0,14.0,-100.00,WNW,282,13.0,18.0,74,0.00,,,-99.99,,2013-01-28 21:42:00,
2013-01-28 14:52:00,20.0,12.0,-100.00,West,270,17.0,24.0,70,0.00,,,-99.99,,2013-01-28 21:52:00,
2013-01-28 15:02:00,20.0,13.0,-100.00,West,270,17.0,22.0,73,0.00,,,-99.99,,2013-01-28 22:02:00,
2013-01-28 15:11:00,20.0,13.0,-100.00,West,270,15.0,22.0,74,0.00,,,-99.99,,2013-01-28 22:11:00,
2013-01-28 15:22:00,20.0,12.0,-100.00,West,278,16.0,21.0,71,0.00,,,-99.99,,2013-01-28 22:22:00,
2013-01-28 15:32:00,20.0,13.0,-100.00,WNW,288,14.0,19.0,72,0.00,,,-99.99,,2013-01-28 22:32:00,
2013-01-28 15:42:00,19.0,13.0,-100.00,WNW,298,16.0,19.0,79,0.00,,,-99.99,,2013-01-28 22:42:00,
2013-01-28 15:52:00,18.0,12.0,-100.00,WNW,296,18.0,22.0,78,0.00,,,-99.99,,2013-01-28 22:52:00,
2013-01-28 16:02:00,18.0,13.0,-100.00,WNW,299,16.0,21.0,80,0.00,,,-99.99,,2013-01-28 23:02:00,
2013-01-28 16:11:00,18.0,13.0,-100.00,WNW,299,16.0,21.0,80,0.00,,,-99.99,,2013-01-28 23:11:00,
2013-01-28 16:22:00,17.0,12.0,-100.00,WNW,292,19.0,24.0,79,0.00,,,-99.99,,2013-01-28 23:22:00,
2013-01-28 16:32:00,17.0,12.0,-100.00,WNW,291,17.0,24.0,80,0.00,,,-99.99,,2013-01-28 23:32:00,
2013-01-28 16:42:00,17.0,13.0,-100.00,WNW,292,17.0,23.0,83,0.00,,,-99.99,,2013-01-28 23:42:00,
2013-01-28 16:52:00,17.0,11.0,-100.00,WNW,284,17.0,23.0,77,0.00,,,-99.99,,2013-01-28 23:52:00,
2013-01-28 17:02:00,17.0,11.0,-100.00,West,270,19.0,26.0,75,0.00,,,-99.99,,2013-01-29 00:02:00,
2013-01-28 17:12:00,17.0,11.0,-100.00,West,268,17.0,25.0,77,0.00,,,-99.99,,2013-01-29 00:12:00,
2013-01-28 17:22:00,17.0,10.0,-100.00,West,267,19.0,29.0,75,0.00,,,-99.99,,2013-01-29 00:22:00,
2013-01-28 17:32:00,17.0,10.0,-100.00,West,261,23.0,30.0,74,0.00,,,-99.99,,2013-01-29 00:32:00,
2013-01-28 17:42:00,16.0,10.0,-100.00,West,263,22.0,33.0,76,0.00,,,-99.99,,2013-01-29 00:42:00,
2013-01-28 17:52:00,16.0,10.0,-100.00,West,261,19.0,34.0,76,0.00,,,-99.99,,2013-01-29 00:52:00,
2013-01-28 18:02:00,16.0,9.0,-100.00,West,261,20.0,27.0,75,0.00,,,-99.99,,2013-01-29 01:02:00,
2013-01-28 18:11:00,16.0,9.0,-100.00,West,263,18.0,26.0,75,0.00,,,-99.99,,2013-01-29 01:11:00,
2013-01-28 18:22:00,15.0,9.0,-100.00,WSW,254,21.0,32.0,75,0.00,,,-99.99,,2013-01-29 01:22:00,
2013-01-28 18:32:00,15.0,8.0,-100.00,WSW,248,25.0,32.0,74,0.00,,,-99.99,,2013-01-29 01:32:00,
2013-01-28 18:42:00,15.0,8.0,-100.00,WSW,251,24.0,32.0,74,0.00,,,-99.99,,2013-01-29 01:42:00,
2013-01-28 18:52:00,15.0,8.0,-100.00,WSW,254,23.0,34.0,74,0.00,,,-99.99,,2013-01-29 01:52:00,
2013-01-28 19:02:00,14.0,8.0,-100.00,WSW,256,26.0,35.0,75,0.00,,,-99.99,,2013-01-29 02:02:00,
2013-01-28 19:12:00,14.0,8.0,-100.00,WSW,257,25.0,34.0,75,0.00,,,-99.99,,2013-01-29 02:12:00,
2013-01-28 19:21:00,14.0,7.0,-100.00,WSW,254,22.0,31.0,74,0.00,,,-99.99,,2013-01-29 02:21:00,
2013-01-28 19:33:00,14.0,6.0,-100.00,WSW,258,24.0,35.0,71,0.00,,,-99.99,,2013-01-29 02:33:00,
2013-01-28 19:41:00,14.0,6.0,-100.00,WSW,257,27.0,34.0,71,0.00,,,-99.99,,2013-01-29 02:41:00,
2013-01-28 19:52:00,14.0,6.0,-100.00,WSW,258,26.0,36.0,72,0.00,,,-99.99,,2013-01-29 02:52:00,
2013-01-28 20:03:00,14.0,6.0,-100.00,West,260,27.0,35.0,71,0.00,,,-99.99,,2013-01-29 03:03:00,
2013-01-28 20:11:00,14.0,6.0,-100.00,West,260,26.0,34.0,71,0.00,,,-99.99,,2013-01-29 03:11:00,
2013-01-28 20:21:00,13.0,6.0,-100.00,WSW,257,23.0,30.0,73,0.00,,,-99.99,,2013-01-29 03:21:00,
2013-01-28 20:32:00,13.0,6.0,-100.00,WSW,258,22.0,29.0,74,0.00,,,-99.99,,2013-01-29 03:32:00,
2013-01-28 20:42:00,13.0,6.0,-100.00,WSW,258,23.0,30.0,73,0.00,,,-99.99,,2013-01-29 03:42:00,
2013-01-28 20:52:00,13.0,6.0,-100.00,West,260,22.0,31.0,73,0.00,,,-99.99,,2013-01-29 03:52:00,
2013-01-28 21:02:00,13.0,6.0,-100.00,West,260,24.0,35.0,72,0.00,,,-99.99,,2013-01-29 04:02:00,
2013-01-28 21:11:00,13.0,6.0,-100.00,West,260,24.0,36.0,73,0.00,,,-99.99,,2013-01-29 04:11:00,
2013-01-28 21:21:00,13.0,6.0,-100.00,West,268,24.0,32.0,73,0.00,,,-99.99,,2013-01-29 04:21:00,
2013-01-28 21:32:00,13.0,6.0,-100.00,West,271,24.0,32.0,74,0.00,,,-99.99,,2013-01-29 04:32:00,
2013-01-28 21:41:00,13.0,6.0,-100.00,West,275,26.0,34.0,75,0.00,,,-99.99,,2013-01-29 04:41:00,
2013-01-28 21:51:00,13.0,6.0,-100.00,West,275,27.0,37.0,74,0.00,,,-99.99,,2013-01-29 04:51:00,
2013-01-28 22:03:00,13.0,6.0,-100.00,West,277,26.0,35.0,73,0.00,,,-99.99,,2013-01-29 05:03:00,
2013-01-28 22:12:00,12.0,6.0,-100.00,West,277,24.0,33.0,74,0.00,,,-99.99,,2013-01-29 05:12:00,
2013-01-28 22:21:00,12.0,5.0,-100.00,West,278,23.0,36.0,74,0.00,,,-99.99,,2013-01-29 05:21:00,
2013-01-28 22:32:00,12.0,5.0,-100.00,West,280,25.0,35.0,72,0.00,,,-99.99,,2013-01-29 05:32:00,
2013-01-28 22:42:00,12.0,5.0,-100.00,West,281,26.0,37.0,74,0.00,,,-99.99,,2013-01-29 05:42:00,
2013-01-28 22:52:00,12.0,5.0,-100.00,West,280,27.0,38.0,75,0.00,,,-99.99,,2013-01-29 05:52:00,
2013-01-28 23:01:00,11.0,5.0,-100.00,West,274,27.0,37.0,76,0.00,,,-99.99,,2013-01-29 06:01:00,
2013-01-28 23:11:00,12.0,5.0,-100.00,West,270,29.0,38.0,75,0.00,,,-99.99,,2013-01-29 06:11:00,
2013-01-28 23:21:00,11.0,5.0,-100.00,West,263,26.0,35.0,76,0.00,,,-99.99,,2013-01-29 06:21:00,
2013-01-28 23:32:00,11.0,5.0,-100.00,WSW,258,27.0,34.0,75,0.00,,,-99.99,,2013-01-29 06:32:00,
2013-01-28 23:41:00,11.0,5.0,-100.00,WSW,257,26.0,35.0,75,0.00,,,-99.99,,2013-01-29 06:41:00,
2013-01-28 23:52:00,11.0,5.0,-100.00,WSW,257,26.0,40.0,75,0.00,,,-99.99,,2013-01-29 06:52:00,